KE5BM-13 Suffolk VA US current weather conditions

sailwx.info

Wind from 302 at 0 knots gusting 3

Air temperature 15.6° C
Dewpoint 15.1° C

Last reported at 2020-Sep-30 05:06 UTC.
Time now 2020-Sep-30 05:47 UTC

Location: N 36°53' W 076°25'.
View on Google Maps.

See reports from other nearby stations

  
Tides and Currents Weather Stations Pressure Air Temp Water Temp Dewpoint Dewpoint Depression Visibility Wind Speed Wind Dir Waves Ship Positions
date/time (UTC)wind fromknots sea level pressurealtimeterstation pressurevisibilityair tempwater tempwave heightnotes
2020-Sep-30 05:06 302 0 gusting 3 15.6
2020-Sep-30 05:01 287 0 gusting 3 15.6
2020-Sep-30 04:51 297 0 gusting 5 15.6
2020-Sep-30 04:46 305 0 gusting 3 15.6
2020-Sep-30 04:44 288 1 gusting 6 15.6
2020-Sep-30 04:29 264 2 gusting 7 16.1
2020-Sep-30 04:21 271 3 gusting 7 16.1
2020-Sep-30 04:08 302 3 gusting 12 18.9
2020-Sep-30 04:01 297 3 gusting 12 19.4
2020-Sep-30 03:56 281 3 gusting 6 20.0
2020-Sep-30 03:53 276 2 gusting 6 20.0
2020-Sep-30 03:49 269 3 gusting 8 20.6
2020-Sep-30 03:41 274 5 gusting 11 21.1
2020-Sep-30 03:38 279 4 gusting 11 22.2
2020-Sep-30 03:33 268 4 gusting 12 23.3
2020-Sep-30 03:26 267 4 gusting 13 23.3
2020-Sep-30 03:16 276 5 gusting 17 23.3
2020-Sep-30 03:11 183 6 gusting 17 23.3
2020-Sep-30 03:06 252 7 gusting 19 23.3
2020-Sep-30 03:01 203 8 gusting 19 23.3
2020-Sep-30 02:58 243 6 gusting 16 23.3
2020-Sep-30 02:38 206 5 gusting 11 23.3
2020-Sep-30 02:33 159 4 gusting 10 23.3
2020-Sep-30 02:26 191 4 gusting 11 23.3
2020-Sep-30 02:21 145 5 gusting 11 23.3
2020-Sep-30 02:18 154 5 gusting 10 23.3
2020-Sep-30 02:13 218 4 gusting 10 23.3
2020-Sep-30 02:01 162 5 gusting 13 23.3
2020-Sep-30 01:56 251 5 gusting 12 23.3
2020-Sep-30 01:51 200 4 gusting 8 22.8
2020-Sep-30 01:48 220 3 gusting 7 22.8
2020-Sep-30 01:41 195 3 gusting 7 22.8
2020-Sep-30 01:36 170 4 gusting 9 22.8
2020-Sep-30 01:31 126 3 gusting 9 22.8
2020-Sep-30 01:26 178 3 gusting 8 22.8
2020-Sep-30 01:21 148 4 gusting 8 22.8
2020-Sep-30 01:18 149 4 gusting 10 22.8
2020-Sep-30 01:11 219 3 gusting 10 22.8
2020-Sep-30 01:06 143 3 gusting 7 22.8
2020-Sep-30 01:01 200 3 gusting 9 22.8
2020-Sep-30 00:53 227 4 gusting 10 22.8
2020-Sep-30 00:46 189 4 gusting 9 22.8
2020-Sep-30 00:43 226 4 gusting 9 22.8
2020-Sep-30 00:31 204 3 gusting 11 22.8
2020-Sep-30 00:26 138 2 gusting 7 22.8
2020-Sep-30 00:23 165 2 gusting 7 22.8
2020-Sep-30 00:16 193 3 gusting 7 22.8
2020-Sep-30 00:11 224 3 gusting 7 22.8
2020-Sep-30 00:06 124 3 gusting 7 22.8
2020-Sep-30 00:03 233 3 gusting 7 22.8
2020-Sep-29 23:56 231 3 gusting 10 22.8
2020-Sep-29 23:51 181 4 gusting 10 22.8
2020-Sep-29 23:46 198 3 gusting 8 22.8
2020-Sep-29 23:41 172 3 gusting 9 22.8
2020-Sep-29 23:38 227 4 gusting 9 22.8
2020-Sep-29 23:31 175 4 gusting 7 22.8
2020-Sep-29 23:26 185 4 gusting 8 22.8
2020-Sep-29 23:13 199 5 gusting 8 22.8
2020-Sep-29 23:06 203 4 gusting 9 22.8
2020-Sep-29 22:56 142 3 gusting 7 22.8
2020-Sep-29 22:51 169 2 gusting 6 23.3
2020-Sep-29 22:46 160 3 gusting 6 23.3
2020-Sep-29 22:41 207 2 gusting 7 23.3
2020-Sep-29 22:38 168 2 gusting 7 23.3
2020-Sep-29 22:31 134 3 gusting 7 23.3
2020-Sep-29 22:26 156 1 gusting 7 23.3
2020-Sep-29 22:23 160 0 gusting 4 23.3
2020-Sep-29 22:16 255 1 gusting 5 23.3
2020-Sep-29 22:00 212 2 gusting 6 23.3
2020-Sep-29 21:45 187 2 gusting 6 23.3
2020-Sep-29 21:42 165 3 gusting 5 23.3
2020-Sep-29 21:35 160 3 gusting 6 23.3
2020-Sep-29 21:30 184 2 gusting 6 23.3
2020-Sep-29 21:15 200 2 gusting 7 23.3
2020-Sep-29 21:10 152 1 gusting 5 23.9
2020-Sep-29 21:00 082 0 gusting 4 23.9
2020-Sep-29 20:57 259 0 gusting 4 23.9
2020-Sep-29 20:52 219 0 gusting 2 23.9
2020-Sep-29 20:44 236 0 gusting 4 23.9
2020-Sep-29 20:34 219 0 gusting 5 23.9
2020-Sep-29 20:29 103 1 gusting 6 23.9
2020-Sep-29 20:24 210 1 gusting 6 24.4
2020-Sep-29 20:14 239 2 gusting 7 24.4
2020-Sep-29 20:09 205 1 gusting 7 24.4
2020-Sep-29 20:04 133 1 gusting 6 24.4
2020-Sep-29 19:59 278 1 gusting 5 25.0
2020-Sep-29 19:54 257 1 gusting 6 25.0
2020-Sep-29 19:49 287 1 gusting 6 25.0
2020-Sep-29 19:39 271 1 gusting 6 25.0
2020-Sep-29 19:34 244 1 gusting 6 25.0
2020-Sep-29 19:26 174 2 gusting 9 25.6
2020-Sep-29 19:19 176 3 gusting 8 25.6
2020-Sep-29 19:14 109 5 gusting 11 26.1
2020-Sep-29 19:04 210 3 gusting 10 26.1
2020-Sep-29 18:59 205 2 gusting 7 26.1
2020-Sep-29 18:47 206 1 gusting 5 26.7
2020-Sep-29 18:39 210 0 gusting 4 26.1
2020-Sep-29 18:34 271 0 gusting 5 26.1
2020-Sep-29 18:29 259 0 gusting 5 26.1
2020-Sep-29 18:18 281 3 gusting 8 26.7
2020-Sep-29 18:13 212 2 gusting 8 26.7
2020-Sep-29 18:09 200 1 gusting 6 26.7
2020-Sep-29 18:03 176 2 gusting 7 26.1
2020-Sep-29 17:58 240 2 gusting 10 26.1
2020-Sep-29 17:53 139 2 gusting 10 26.1
2020-Sep-29 17:48 193 3 gusting 10 26.1
2020-Sep-29 17:41 214 6 gusting 11 26.1
2020-Sep-29 17:33 111 6 gusting 13 26.1
2020-Sep-29 17:23 221 4 gusting 11 25.6
2020-Sep-29 17:18 258 4 gusting 11 25.6
2020-Sep-29 17:08 217 4 gusting 7 25.0
2020-Sep-29 16:58 110 2 gusting 7 24.4
2020-Sep-29 16:53 097 2 gusting 5 23.9
2020-Sep-29 16:43 218 4 gusting 10 23.9
2020-Sep-29 16:38 252 3 gusting 9 23.9
2020-Sep-29 16:33 190 1 gusting 5 23.9
2020-Sep-29 16:28 333 2 gusting 7 23.9
2020-Sep-29 16:18 157 3 gusting 11 23.9
2020-Sep-29 16:11 260 2 gusting 9 23.9
2020-Sep-29 16:00 273 3 gusting 10 24.4
2020-Sep-29 15:48 209 3 gusting 9 24.4
2020-Sep-29 15:43 191 3 gusting 10 24.4
2020-Sep-29 15:35 188 5 gusting 12 24.4
2020-Sep-29 15:28 127 4 gusting 16 24.4
2020-Sep-29 15:23 168 5 gusting 16 24.4
2020-Sep-29 15:15 259 4 gusting 8 24.4
2020-Sep-29 15:08 191 5 gusting 14 24.4
2020-Sep-29 14:58 146 4 gusting 10 24.4
2020-Sep-29 14:53 227 5 gusting 10 24.4
2020-Sep-29 14:43 165 2 gusting 10 24.4
2020-Sep-29 14:33 234 2 gusting 9 23.9
2020-Sep-29 14:28 270 2 gusting 7 23.3
2020-Sep-29 14:23 337 1 gusting 6 23.3
2020-Sep-29 14:13 181 1 gusting 6 23.3
2020-Sep-29 14:08 260 2 gusting 9 22.8
2020-Sep-29 14:00 206 1 gusting 6 22.8
2020-Sep-29 13:55 231 0 gusting 6 22.8
2020-Sep-29 13:48 222 22.2
2020-Sep-29 13:28 288 22.2
2020-Sep-29 13:15 283 0 gusting 5 22.8
2020-Sep-29 13:10 193 1 gusting 5 22.8
2020-Sep-29 13:05 221 1 gusting 4 22.2
2020-Sep-29 12:55 203 1 gusting 6 22.8
2020-Sep-29 12:48 139 3 gusting 6 22.8
2020-Sep-29 12:33 180 3 gusting 6 22.8
2020-Sep-29 12:15 205 2 gusting 6 22.2
2020-Sep-29 12:10 140 1 gusting 5 22.2
2020-Sep-29 12:03 204 1 gusting 5 22.2
2020-Sep-29 11:58 200 0 gusting 5 21.7
2020-Sep-29 11:53 272 0 gusting 4 21.7
2020-Sep-29 11:48 283 1 gusting 5 21.7
2020-Sep-29 11:38 221 1 gusting 5 21.7
2020-Sep-29 11:17 211 1 gusting 3 21.1
2020-Sep-29 11:12 203 1 gusting 4 21.1
2020-Sep-29 11:07 267 0 gusting 4 21.1
2020-Sep-29 10:57 279 0 gusting 5 21.1
2020-Sep-29 10:52 220 0 gusting 6 21.7
2020-Sep-29 10:47 221 1 gusting 6 21.7
2020-Sep-29 10:42 279 2 gusting 6 21.7
2020-Sep-29 10:39 266 2 gusting 6 21.1
2020-Sep-29 10:32 168 1 gusting 5 21.1
2020-Sep-29 10:29 149 1 gusting 5 21.1
2020-Sep-29 10:22 258 1 gusting 4 21.1
2020-Sep-29 10:17 222 1 gusting 4 21.7
2020-Sep-29 10:12 264 1 gusting 5 21.7
2020-Sep-29 10:07 169 1 gusting 5 21.7
2020-Sep-29 10:02 198 0 gusting 3 21.7
2020-Sep-29 09:59 215 0 gusting 6 21.1
2020-Sep-29 09:54 136 0 gusting 6 21.1
2020-Sep-29 09:49 243 21.1
2020-Sep-29 09:42 167 21.1
2020-Sep-29 09:37 152 0 gusting 3 21.1
2020-Sep-29 09:27 256 0 gusting 3 21.1
2020-Sep-29 09:22 198 0 gusting 2 21.1
2020-Sep-29 09:17 271 0 gusting 2 21.1
2020-Sep-29 09:12 212 21.1
2020-Sep-29 09:07 278 21.1
2020-Sep-29 09:02 272 21.1
2020-Sep-29 08:59 274 21.1
2020-Sep-29 08:47 256 21.1
2020-Sep-29 08:44 256 21.1
2020-Sep-29 08:37 256 21.1
2020-Sep-29 08:32 246 21.1
2020-Sep-29 08:27 246 21.1
2020-Sep-29 08:17 255 21.1
2020-Sep-29 08:12 272 21.1
2020-Sep-29 08:09 272 21.1
2020-Sep-29 08:02 269 21.1
2020-Sep-29 07:52 251 21.1
2020-Sep-29 07:44 302 21.1
2020-Sep-29 07:38 302 21.1
2020-Sep-29 07:33 241 21.1
2020-Sep-29 07:28 139 21.1
2020-Sep-29 07:16 274 0 gusting 4 21.1
2020-Sep-29 07:05 269 21.1
2020-Sep-29 07:03 296 21.1
2020-Sep-29 06:55 271 0 gusting 5 21.1
2020-Sep-29 06:50 259 0 gusting 5 21.1
2020-Sep-29 06:47 169 0 gusting 4 21.1
2020-Sep-29 06:35 198 21.1
2020-Sep-29 06:30 283 21.1
2020-Sep-29 06:25 281 21.1
2020-Sep-29 06:09 199 21.1
2020-Sep-29 06:02 264 21.1
2020-Sep-29 05:54 195 21.1
2020-Sep-29 05:39 277 21.7
2020-Sep-29 05:29 278 21.7
2020-Sep-29 05:24 127 0 gusting 4 21.7
2020-Sep-29 05:19 264 0 gusting 2 21.7
2020-Sep-29 05:09 279 21.7
2020-Sep-29 05:01 282 0 gusting 6 21.7
2020-Sep-29 04:56 262 0 gusting 5 21.7
2020-Sep-29 04:48 275 0 gusting 1 21.7
2020-Sep-29 04:43 275 0 gusting 3 21.7
2020-Sep-29 04:38 284 0 gusting 3 21.7
2020-Sep-29 04:28 287 21.7
2020-Sep-29 04:18 255 0 gusting 4 22.2
2020-Sep-29 04:10 228 1 gusting 6 22.2
2020-Sep-29 04:03 201 2 gusting 7 22.2
2020-Sep-29 03:58 227 2 gusting 7 22.2
2020-Sep-29 03:53 197 1 gusting 7 22.2
2020-Sep-29 03:45 257 2 gusting 7 22.2
2020-Sep-29 03:40 207 2 gusting 6 22.2
2020-Sep-29 03:28 203 2 gusting 8 22.2
2020-Sep-29 03:18 259 1 gusting 6 22.2
2020-Sep-29 03:13 280 1 gusting 6 22.2
2020-Sep-29 03:08 278 1 gusting 6 22.2
2020-Sep-29 02:57 160 1 gusting 6 22.2
2020-Sep-29 02:52 306 1 gusting 6 22.2
2020-Sep-29 02:37 182 1 gusting 7 22.2
2020-Sep-29 02:27 202 3 gusting 8 22.2
2020-Sep-29 02:22 215 3 gusting 7 22.2
2020-Sep-29 02:17 166 3 gusting 8 22.2
2020-Sep-29 02:12 186 3 gusting 8 22.8
2020-Sep-29 02:07 203 3 gusting 8 22.8
2020-Sep-29 02:02 223 4 gusting 7 22.8
2020-Sep-29 01:57 214 4 gusting 7 22.8
2020-Sep-29 01:55 183 4 gusting 11 22.8
2020-Sep-29 01:47 175 3 gusting 11 22.8
2020-Sep-29 01:37 186 3 gusting 6 22.8
2020-Sep-29 01:27 173 3 gusting 7 22.8
2020-Sep-29 01:22 199 4 gusting 8 22.8
2020-Sep-29 01:12 191 4 gusting 7 22.8
2020-Sep-29 01:07 158 5 gusting 9 22.8
2020-Sep-29 01:02 173 5 gusting 10 22.8
2020-Sep-29 00:50 110 3 gusting 6 22.8
2020-Sep-29 00:42 193 4 gusting 9 23.3
2020-Sep-29 00:32 198 2 gusting 6 23.3
2020-Sep-29 00:22 179 3 gusting 6 23.3
2020-Sep-29 00:17 126 3 gusting 7 23.3
2020-Sep-29 00:12 196 3 gusting 7 23.3
2020-Sep-29 00:08 289 4 gusting 6 23.3
2020-Sep-29 00:05 177 3 gusting 6 23.3
2020-Sep-28 23:34 173 2 gusting 6 23.9
2020-Sep-28 23:22 228 2 gusting 5 24.4
2020-Sep-28 23:17 201 2 gusting 5 24.4
2020-Sep-28 23:12 157 1 gusting 4 24.4
2020-Sep-28 23:02 189 0 gusting 4 24.4
2020-Sep-28 22:44 276 25.0
2020-Sep-28 22:32 195 25.6
2020-Sep-28 22:26 256 0 gusting 4 25.6
2020-Sep-28 22:22 334 0 gusting 4 25.6
2020-Sep-28 22:16 282 0 gusting 3 25.6
2020-Sep-28 22:14 298 1 gusting 6 25.6
2020-Sep-28 22:03 210 4 gusting 9 26.1
2020-Sep-28 21:56 185 4 gusting 9 26.1
2020-Sep-28 21:46 163 4 gusting 9 26.1
2020-Sep-28 21:41 207 4 gusting 10 26.1
2020-Sep-28 21:36 118 4 gusting 11 26.1
2020-Sep-28 21:31 223 4 gusting 11 26.1
2020-Sep-28 21:23 224 4 gusting 13 26.7
2020-Sep-28 21:16 193 3 gusting 10 26.7
2020-Sep-28 21:11 227 4 gusting 10 26.7
2020-Sep-28 21:08 285 4 gusting 10 26.7
2020-Sep-28 21:03 216 4 gusting 10 26.7
2020-Sep-28 20:56 203 4 gusting 8 27.2
2020-Sep-28 20:53 191 2 gusting 8 27.2
2020-Sep-28 20:46 159 2 gusting 7 27.2
2020-Sep-28 20:43 226 3 gusting 9 27.2
2020-Sep-28 20:36 189 2 gusting 9 27.2
2020-Sep-28 20:33 196 0 gusting 6 27.2
2020-Sep-28 20:28 276 27.2
2020-Sep-28 20:13 287 1 gusting 9 27.8
2020-Sep-28 20:06 252 1 gusting 9 27.8
2020-Sep-28 20:01 278 0 gusting 5 27.8
2020-Sep-28 19:51 238 0 gusting 4 27.8
2020-Sep-28 19:41 270 2 gusting 8 27.8
2020-Sep-28 19:38 082 3 gusting 10 27.8
2020-Sep-28 19:31 213 4 gusting 10 27.8
2020-Sep-28 19:26 129 4 gusting 10 28.3
2020-Sep-28 19:21 135 2 gusting 8 28.3
2020-Sep-28 19:18 338 1 gusting 6 28.3
2020-Sep-28 19:11 203 1 gusting 6 28.9
2020-Sep-28 19:06 285 2 gusting 9 28.3
2020-Sep-28 19:03 274 3 gusting 9 28.9
2020-Sep-28 18:56 199 3 gusting 7 28.9
2020-Sep-28 18:53 051 3 gusting 7 28.9
2020-Sep-28 18:48 244 2 gusting 7 28.9
2020-Sep-28 18:41 122 3 gusting 10 29.4
2020-Sep-28 18:38 121 2 gusting 10 29.4
2020-Sep-28 18:26 141 2 gusting 7 29.4
2020-Sep-28 18:23 122 2 gusting 7 29.4
2020-Sep-28 18:11 089 1 gusting 6 29.4
2020-Sep-28 18:06 210 1 gusting 7 29.4
2020-Sep-28 18:03 249 1 gusting 7 29.4
2020-Sep-28 17:58 188 1 gusting 6 29.4
2020-Sep-28 17:46 208 1 gusting 4 28.9
2020-Sep-28 17:41 264 0 gusting 5 28.9
2020-Sep-28 17:36 180 0 gusting 4 28.9
2020-Sep-28 17:31 264 0 gusting 3 28.9
2020-Sep-28 17:23 091 0 gusting 5 28.9
2020-Sep-28 17:16 086 0 gusting 3 28.3
2020-Sep-28 17:11 285 0 gusting 4 28.3
2020-Sep-28 17:01 127 1 gusting 6 28.3
2020-Sep-28 16:56 147 0 gusting 6 27.8
2020-Sep-28 16:53 324 0 gusting 2 27.2
2020-Sep-28 16:46 289 0 gusting 1 27.2
2020-Sep-28 16:41 283 0 gusting 1 27.8
2020-Sep-28 16:38 278 0 gusting 1 27.2
2020-Sep-28 16:31 299 0 gusting 1 26.7
2020-Sep-28 16:26 295 0 gusting 1 26.1
2020-Sep-28 16:23 278 0 gusting 2 26.1
2020-Sep-28 16:16 281 1 gusting 2 26.1
2020-Sep-28 16:13 296 1 gusting 2 26.1
2020-Sep-28 15:58 285 1 gusting 3 25.6
2020-Sep-28 15:33 292 0 gusting 2 25.6
2020-Sep-28 15:28 285 0 gusting 2 25.6
2020-Sep-28 15:16 288 0 gusting 1 25.0
2020-Sep-28 15:11 300 0 gusting 2 24.4
2020-Sep-28 15:06 274 0 gusting 2 24.4
2020-Sep-28 15:01 296 0 gusting 3 24.4
2020-Sep-28 14:55 283 0 gusting 3 24.4
2020-Sep-28 14:45 295 0 gusting 1 24.4
2020-Sep-28 14:43 288 0 gusting 1 24.4
2020-Sep-28 14:35 291 23.9
2020-Sep-28 14:28 290 0 gusting 1 23.3
2020-Sep-28 14:20 293 0 gusting 2 23.3
2020-Sep-28 14:15 292 0 gusting 2 23.3
2020-Sep-28 14:10 275 0 gusting 2 23.3
2020-Sep-28 14:00 296 0 gusting 1 22.8
2020-Sep-28 13:54 293 1 gusting 2 22.8
2020-Sep-28 13:49 276 0 gusting 2 22.2
2020-Sep-28 13:44 278 0 gusting 2 22.2
2020-Sep-28 13:34 295 0 gusting 2 22.2
2020-Sep-28 13:29 290 0 gusting 2 21.7
2020-Sep-28 13:24 287 0 gusting 2 21.7
2020-Sep-28 13:19 288 0 gusting 1 21.7
2020-Sep-28 13:14 288 0 gusting 1 21.7
2020-Sep-28 13:08 287 21.1
2020-Sep-28 12:53 289 20.6
2020-Sep-28 12:43 278 20.6
2020-Sep-28 12:38 289 20.6
2020-Sep-28 12:33 289 20.0
2020-Sep-28 12:28 288 20.0
2020-Sep-28 12:23 288 19.4
2020-Sep-28 12:18 288 19.4
2020-Sep-28 12:13 289 19.4
2020-Sep-28 11:57 288 18.9
2020-Sep-28 11:55 204 18.9
2020-Sep-28 11:42 162 18.3
2020-Sep-28 11:37 274 18.3
2020-Sep-28 11:32 274 18.3
2020-Sep-28 11:27 274 18.3
2020-Sep-28 11:24 274 18.3
2020-Sep-28 11:11 274 18.3
2020-Sep-28 11:06 274 18.3
2020-Sep-28 11:01 274 18.3
2020-Sep-28 10:58 274 18.3
2020-Sep-28 10:50 274 18.3
2020-Sep-28 10:45 274 18.3
2020-Sep-28 10:42 274 18.9
2020-Sep-28 10:32 274 18.9
2020-Sep-28 10:24 274 18.9
2020-Sep-28 10:19 290 18.9
2020-Sep-28 10:08 290 18.9
2020-Sep-28 09:58 290 18.9
2020-Sep-28 09:53 290 18.9
2020-Sep-28 09:45 290 18.9
2020-Sep-28 09:32 288 18.9
2020-Sep-28 09:29 288 18.9
2020-Sep-28 09:22 288 18.9
2020-Sep-28 09:19 288 18.9
2020-Sep-28 09:12 288 18.9
2020-Sep-28 09:07 288 18.9
2020-Sep-28 09:02 288 18.9
2020-Sep-28 08:59 288 18.9
2020-Sep-28 08:41 288 18.9
2020-Sep-28 08:36 288 18.9
2020-Sep-28 08:31 283 18.9
2020-Sep-28 08:16 283 18.9
2020-Sep-28 08:11 283 18.9
2020-Sep-28 08:06 283 18.9
2020-Sep-28 08:01 283 18.9
2020-Sep-28 07:56 283 18.9
2020-Sep-28 07:53 283 18.9
2020-Sep-28 07:46 277 18.9
2020-Sep-28 07:41 277 18.9
2020-Sep-28 07:36 283 18.9
2020-Sep-28 07:33 283 18.9
2020-Sep-28 07:16 283 18.9
2020-Sep-28 07:11 283 18.9
2020-Sep-28 07:06 283 18.9
2020-Sep-28 07:01 283 18.9
2020-Sep-28 06:58 283 18.9
2020-Sep-28 06:51 283 18.9
2020-Sep-28 06:48 283 18.9
2020-Sep-28 06:38 283 18.9
2020-Sep-28 06:31 283 18.9
2020-Sep-28 06:13 282 18.9
2020-Sep-28 06:06 282 18.9
2020-Sep-28 05:56 282 18.9
2020-Sep-28 05:48 282 18.9
2020-Sep-28 05:38 281 18.9
2020-Sep-28 05:31 269 19.4
2020-Sep-28 05:23 269 19.4
2020-Sep-28 05:16 269 19.4
2020-Sep-28 05:08 265 18.9
2020-Sep-28 05:01 240 18.9